DateTimeUTC,F1_A11,F1_S11,BsB_S11,BsG_S11,BsR_S11,BbsB_S11,BbsG_S11,BbsR_S11,BaB_A11,BaG_A11,BaR_A11,Tu_S11,T_S11,Uu_S11,U_S11,P_S11,T1_A11
2021-01-30T11:00:00Z,00000200,21000000,,,,,,,-000.29,-000.26,0000.68,16.2,23.6,,00.0,0638.5,30.9
2021-01-30T11:01:00Z,00000200,21000000,,,,,,,0000.02,-000.44,-000.17,16.1,23.6,,00.0,0638.5,30.9
2021-01-30T11:02:00Z,00000200,21000000,,,,,,,0000.08,0000.06,-000.19,16.1,23.6,,00.0,0638.6,30.9
2021-01-30T11:03:00Z,00000200,61000000,,,,,,,0000.45,0000.25,0000.28,16.1,23.6,,00.0,0638.6,30.9
2021-01-30T11:04:00Z,00000200,41000000,-000.01,0000.16,0000.18,-000.01,0000.02,0000.04,0000.09,0000.14,0000.13,16.4,23.4,,00.0,0639.4,30.9
2021-01-30T11:05:00Z,00000200,01000000,-000.15,0000.07,0000.23,0000.18,0000.15,0000.15,-000.07,0000.28,-000.18,16.5,23.4,,00.0,0639.5,30.9
2021-01-30T11:06:00Z,00000200,01000000,-000.49,-000.20,0000.16,-000.05,0000.01,0000.16,-000.10,-000.22,0000.29,16.6,23.5,,00.0,0639.5,30.9
2021-01-30T11:07:00Z,00000200,01000000,-000.01,0000.29,0000.55,-000.40,0000.20,0000.30,0000.10,0000.04,0000.52,16.7,23.5,,00.0,0639.5,30.9
2021-01-30T11:08:00Z,00000200,01000000,0000.41,0000.30,0000.19,-000.16,0000.21,0000.05,-000.41,0000.25,-000.68,16.8,23.5,,00.0,0639.5,31.0
2021-01-30T11:09:00Z,00000200,01000000,-000.10,0000.00,0000.17,0000.13,0000.04,0000.03,0000.33,-000.48,0000.01,16.8,23.6,,00.0,0639.5,30.9
2021-01-30T11:10:00Z,00000200,01000000,0000.26,0000.39,0000.19,0000.04,0000.03,0000.24,-000.08,0000.54,0000.20,16.8,23.5,,00.0,0639.5,30.9
2021-01-30T11:11:00Z,00000200,01000000,0000.00,0000.15,0000.17,0000.04,0000.17,0000.10,0000.31,0000.27,-000.17,16.8,23.5,,00.0,0639.5,30.9
2021-01-30T11:12:00Z,00000200,01000000,-000.11,0000.09,0000.37,-000.00,0000.68,0000.22,-000.08,-000.09,0000.21,16.7,23.5,,00.0,0639.5,30.9
2021-01-30T11:13:00Z,00000200,01000000,-000.01,0000.05,0000.30,0000.11,0000.06,0000.15,0000.12,-000.03,-000.05,16.6,23.4,,00.0,0639.5,30.9
2021-01-30T11:14:00Z,00000200,01000000,0000.19,0000.16,-000.04,0000.08,-000.01,0000.25,0000.12,-000.09,-000.08,16.6,23.4,,00.0,0639.5,30.9
2021-01-30T11:15:00Z,00000200,01000000,0000.15,0000.27,0000.39,-000.38,0000.00,0000.37,0000.00,0000.28,0000.16,16.5,23.4,,00.0,0639.5,30.9
2021-01-30T11:16:00Z,00000200,01000000,-000.28,0000.33,0000.07,-000.03,0000.19,-000.06,-000.34,-000.41,-000.04,16.4,23.3,,00.0,0639.5,30.9
2021-01-30T11:17:00Z,00000200,01000000,-000.09,0000.59,0000.19,0000.07,-000.18,0000.24,0000.41,0000.19,0000.18,16.4,23.3,,00.0,0639.5,30.9
2021-01-30T11:18:00Z,00000200,01000000,0000.37,-000.16,0000.16,-000.44,0000.25,-000.00,-000.22,-000.42,-000.25,16.5,23.3,,00.0,0639.5,30.9
2021-01-30T11:19:00Z,00000200,01000000,0000.39,0000.12,0000.14,-000.06,0000.21,0000.18,0000.19,0000.13,0000.23,16.6,23.3,,00.0,0639.5,30.9
2021-01-30T11:20:00Z,00000200,01000000,0000.03,0000.26,0000.19,-000.31,0000.24,0000.08,-000.08,0000.04,0000.14,16.6,23.4,,00.0,0639.5,30.9
2021-01-30T11:21:00Z,00000200,01000000,0000.19,0000.14,0000.24,-000.54,0000.25,-000.03,0000.03,-000.05,-000.43,16.6,23.4,,00.0,0639.5,30.9
2021-01-30T11:22:00Z,00000200,01000000,-000.40,0000.21,0000.35,-000.04,0000.04,0000.02,0000.14,0000.30,0000.33,16.6,23.4,,00.0,0639.5,30.9
2021-01-30T11:23:00Z,00000200,01000000,0000.21,0000.09,0000.05,0000.07,0000.04,0000.18,0000.04,0000.47,-000.03,16.6,23.4,,00.0,0639.5,30.9
2021-01-30T11:24:00Z,00000200,01000000,-000.33,-000.00,0000.20,0000.29,0000.22,-000.19,-000.04,-000.26,0000.10,16.5,23.3,,00.0,0639.5,30.9
2021-01-30T11:25:00Z,00000200,01000000,0000.19,0000.05,0000.13,0000.08,0000.15,0000.02,0000.52,0000.61,0000.08,16.5,23.3,,00.0,0639.5,30.9
2021-01-30T11:26:00Z,00000200,01000000,0000.12,-000.17,-000.09,-000.60,0000.07,0000.25,-000.45,-000.08,-000.04,16.4,23.2,,00.0,0639.5,30.9
2021-01-30T11:27:00Z,00000200,01000000,0000.23,-000.02,0000.16,-000.09,-000.11,0000.02,0000.15,-000.49,-000.19,16.3,23.2,,00.0,0639.5,30.9
2021-01-30T11:28:00Z,00000200,01000000,-000.55,0000.17,0000.36,0000.33,0000.27,0000.33,-000.14,0000.31,0000.44,16.3,23.2,,00.0,0639.5,30.9
2021-01-30T11:29:00Z,00000200,01000000,-000.28,0000.14,0000.01,-000.46,0000.14,0000.17,-000.12,-000.44,-000.57,16.2,23.1,,00.0,0639.5,30.9
2021-01-30T11:30:00Z,00000200,01000000,-000.32,0000.18,0000.19,0000.45,-000.03,-000.12,0000.16,0000.00,0000.39,16.2,23.1,,00.0,0639.5,30.9
2021-01-30T11:31:00Z,00000200,01000000,0000.01,0000.26,0000.32,-000.01,-000.02,-000.03,-000.41,-000.25,-000.47,16.1,23.1,,00.0,0639.5,30.9
2021-01-30T11:32:00Z,00000200,01000000,-000.23,0000.16,0000.26,-000.04,0000.47,0000.19,0000.22,-000.36,0000.27,16.1,23.1,,00.0,0639.5,30.8
2021-01-30T11:33:00Z,00000200,01000000,0000.30,0000.23,0000.16,-000.12,0000.10,0000.17,0000.01,0000.53,-000.06,16.2,23.1,,00.0,0639.5,30.9
2021-01-30T11:34:00Z,00000200,01000000,0000.52,0000.08,0000.07,-000.40,0000.17,0000.26,0000.45,0000.14,0000.04,16.3,23.1,,00.0,0639.4,30.9
2021-01-30T11:35:00Z,00000200,01000000,0000.27,0000.30,-000.12,0000.25,-000.10,0000.08,-000.38,0000.07,0000.03,16.4,23.1,,00.0,0639.5,30.9
2021-01-30T11:36:00Z,00000200,01000000,-000.19,0000.22,0000.11,-000.14,0000.23,-000.14,0000.47,0000.34,0000.62,16.4,23.2,,00.0,0639.5,30.9
2021-01-30T11:37:00Z,00000200,01000000,0000.01,0000.04,-000.14,-000.02,0000.06,-000.06,-000.27,-000.48,-000.39,16.5,23.2,,00.0,0639.5,30.9
2021-01-30T11:38:00Z,00000200,01000000,0000.27,0000.30,0000.19,0000.15,0000.26,-000.25,-000.09,0000.26,0000.17,16.6,23.3,,00.0,0639.5,30.9
2021-01-30T11:39:00Z,00000200,01000000,0000.43,0000.30,0000.11,-000.13,0000.33,0000.07,0000.26,-000.28,-000.44,16.6,23.3,,00.0,0639.5,30.9
2021-01-30T11:40:00Z,00000200,01000000,0000.13,0000.20,-000.01,-000.08,0000.04,-000.07,-000.13,0000.27,0000.49,16.7,23.3,,00.0,0639.5,30.9
2021-01-30T11:41:00Z,00000200,01000000,0000.10,0000.30,0000.02,-000.31,0000.26,0000.12,0000.06,0000.13,-000.21,16.6,23.3,,00.0,0639.5,30.9
2021-01-30T11:42:00Z,00000200,01000000,0000.74,0000.31,0000.03,0000.32,0000.15,0000.09,-000.10,-000.00,0000.16,16.5,23.3,,00.0,0639.5,30.9
2021-01-30T11:43:00Z,00000200,01000000,-000.74,0000.28,0000.24,0000.05,0000.26,0000.07,0000.17,0000.02,0000.27,16.5,23.2,,00.0,0639.5,30.9
2021-01-30T11:44:00Z,00000200,01000000,-000.46,0000.14,0000.13,0000.16,0000.16,-000.17,-000.12,-000.00,-000.22,16.4,23.2,,00.0,0639.5,30.9
2021-01-30T11:45:00Z,00000200,01000000,-000.11,0000.15,0000.08,-000.30,0000.29,0000.29,0000.10,0000.12,0000.18,16.3,23.1,,00.0,0639.5,30.9
2021-01-30T11:46:00Z,00000200,01000000,0000.12,0000.43,0000.14,-000.31,0000.40,0000.19,-000.27,-000.17,-000.31,16.3,23.1,,00.0,0639.5,30.9
2021-01-30T11:47:00Z,00000200,01000000,-000.20,0000.30,0000.11,-000.38,0000.21,0000.20,-000.00,-000.75,-000.56,16.3,23.1,,00.0,0639.5,30.9
2021-01-30T11:48:00Z,00000200,01000000,0000.07,0000.14,0000.07,-000.04,-000.10,0000.18,0000.00,0000.69,0000.13,16.3,23.1,,00.0,0639.5,30.9
2021-01-30T11:49:00Z,00000200,01000000,-000.68,0000.05,0000.28,-000.10,0000.28,0000.17,0000.32,-000.03,0000.20,16.4,23.1,,00.0,0639.5,30.9
2021-01-30T11:50:00Z,00000200,01000000,0000.58,0000.00,0000.40,-000.04,0000.29,0000.24,-000.06,0000.13,0000.20,16.5,23.2,,00.0,0639.5,30.9
2021-01-30T11:51:00Z,00000200,01000000,-000.11,0000.12,-000.02,0000.16,0000.22,-000.03,-000.06,0000.07,-000.05,16.5,23.2,,00.0,0639.5,30.9
2021-01-30T11:52:00Z,00000200,01000000,0000.62,-000.09,0000.09,0000.18,0000.01,0000.15,0000.27,0000.01,0000.15,16.6,23.3,,00.0,0639.5,30.9
2021-01-30T11:53:00Z,00000200,01000000,0000.50,0000.24,0000.18,0000.27,0000.15,0000.00,-000.17,-000.01,-000.14,16.7,23.3,,00.0,0639.5,30.9
2021-01-30T11:54:00Z,00000200,01000000,-000.28,0000.41,0000.24,-000.01,0000.33,0000.20,-000.15,-000.32,0000.33,16.7,23.3,,00.0,0639.5,31.0
2021-01-30T11:55:00Z,00000200,01000000,-000.33,-000.07,0000.05,0000.03,-000.08,0000.04,0000.52,0000.26,0000.26,16.8,23.4,,00.0,0639.5,30.9
2021-01-30T11:56:00Z,00000200,01000000,0000.25,0000.19,0000.34,-000.42,0000.27,0000.17,-000.20,0000.18,-000.39,16.7,23.4,,00.0,0639.5,30.9
2021-01-30T11:57:00Z,00000200,41000000,,,,,,,-000.23,0000.02,0000.10,16.8,23.4,,00.0,0639.4,30.9
2021-01-30T11:58:00Z,00000200,61000000,,,,,,,0000.12,-000.19,-000.37,16.3,23.5,,00.0,0638.6,30.9
2021-01-30T11:59:00Z,00000200,21000000,,,,,,,-000.61,-000.03,-000.44,16.2,23.6,,00.0,0638.6,30.9
